Valdosta Regional, GA

2:46 AM EDT on May 24, 2018 (GMT -0400)
Valdosta Regional

Weather History for KVLD - September, 2013

Change the Weather History Date:

Tuesday, September 10, 2013

  Actual Average Record
Temperature  
Mean Temperature 82 °F 79 °F  
Max Temperature 94 °F 89 °F 95 °F (2010)
Min Temperature 69 °F 69 °F 59 °F (2011)
Degree Days  
Heating Degree Days 0 0  
Month to date heating degree days 0 0  
Since 1 July heating degree days 0 0  
Cooling Degree Days 17 14  
Month to date cooling degree days 163 145  
Year to date cooling degree days 2437 1999  
Growing Degree Days 31 (Base 50)    
Moisture  
Dew Point 67 °F    
Average Humidity 64    
Maximum Humidity 87    
Minimum Humidity 41    
Precipitation  
Precipitation 0.00 in 0.19 in 1.66 in (2008)
Month to date precipitation 0.04 1.68  
Year to date precipitation 34.20 38.71  
Sea Level Pressure  
Sea Level Pressure 30.14 in    
Wind  
Wind Speed 5 mph (East)    
Max Wind Speed 15 mph    
Max Gust Speed 21 mph    
Visibility 10 miles    
Events      
T = Trace of Precipitation, MM = Missing Value Source: NWS Daily Summary

Daily Weather History Graph

Daily Weather History Graph

Search for Another Location

Airport or City:

Astronomy

Sep. 10, 2013 Rise Set
Actual Time 7:14 AM EDT 7:44 PM EDT
Civil Twilight 6:50 AM EDT 8:08 PM EDT
Nautical Twilight 6:21 AM EDT 8:37 PM EDT
Astronomical Twilight 5:53 AM EDT 9:06 PM EDT
Moon 12:15 PM EDT (9/10) 11:11 PM EDT (9/10)
Length of Visible Light 13h 18m
Length of Day
12h 29m
Waxing Crescent, 28% of the Moon is Illuminated
Sep 10
Waxing Crescent
Sep 12
First Quarter
Sep 19
Full
Sep 26
Last Quarter
Oct 4
New

Hourly Weather History & Observations

Time (EDT) Temp. Heat Index Dew Point Humidity Pressure Visibility Wind Dir Wind Speed Gust Speed Precip Events Conditions
12:53 AM 75.9 °F - 66.9 °F 74% 30.12 in 10.0 mi Calm Calm - N/A   Clear
1:53 AM 73.9 °F - 66.9 °F 79% 30.12 in 10.0 mi Calm Calm - N/A   Clear
2:53 AM 71.1 °F - 66.0 °F 84% 30.11 in 10.0 mi Calm Calm - N/A   Clear
3:53 AM 71.1 °F - 66.0 °F 84% 30.11 in 10.0 mi Calm Calm - N/A   Clear
4:53 AM 70.0 °F - 64.9 °F 84% 30.11 in 10.0 mi Calm Calm - N/A   Clear
5:53 AM 70.0 °F - 64.9 °F 84% 30.12 in 9.0 mi Calm Calm - N/A   Clear
6:53 AM 69.1 °F - 64.9 °F 87% 30.14 in 8.0 mi Calm Calm - N/A   Clear
7:53 AM 73.0 °F - 69.1 °F 87% 30.16 in 8.0 mi NE 4.6 mph - N/A   Clear
8:53 AM 79.0 °F - 71.1 °F 77% 30.17 in 10.0 mi NE 5.8 mph - N/A   Clear
9:53 AM 82.9 °F 87.0 °F 70.0 °F 65% 30.18 in 10.0 mi East 6.9 mph - N/A   Clear
10:53 AM 86.0 °F 89.4 °F 68.0 °F 55% 30.19 in 10.0 mi ENE 12.7 mph 18.4 mph N/A   Scattered Clouds
11:53 AM 89.1 °F 92.1 °F 66.9 °F 48% 30.19 in 10.0 mi ESE 11.5 mph - N/A   Partly Cloudy
12:53 PM 91.0 °F 95.2 °F 68.0 °F 47% 30.17 in 10.0 mi ENE 11.5 mph - N/A   Mostly Cloudy
1:53 PM 91.0 °F 93.8 °F 66.0 °F 44% 30.16 in 10.0 mi East 11.5 mph 16.1 mph N/A   Scattered Clouds
2:53 PM 91.9 °F 94.5 °F 66.0 °F 42% 30.14 in 10.0 mi ESE 9.2 mph 17.3 mph N/A   Scattered Clouds
3:53 PM 93.0 °F 96.4 °F 66.9 °F 42% 30.11 in 10.0 mi ENE 8.1 mph - N/A   Partly Cloudy
4:53 PM 93.0 °F 96.4 °F 66.9 °F 42% 30.11 in 10.0 mi SE 10.4 mph - N/A   Partly Cloudy
5:53 PM 91.0 °F 93.0 °F 64.9 °F 42% 30.11 in 10.0 mi SE 9.2 mph - N/A   Clear
6:53 PM 88.0 °F 90.3 °F 66.0 °F 48% 30.11 in 10.0 mi East 6.9 mph - N/A   Partly Cloudy
7:53 PM 84.9 °F 87.6 °F 66.9 °F 55% 30.12 in 10.0 mi East 8.1 mph - N/A   Clear
8:53 PM 82.0 °F 83.8 °F 64.9 °F 56% 30.15 in 10.0 mi East 4.6 mph - N/A   Clear
9:53 PM 77.0 °F - 66.0 °F 69% 30.17 in 10.0 mi Calm Calm - N/A   Clear
10:53 PM 75.9 °F - 66.0 °F 71% 30.19 in 10.0 mi Calm Calm - N/A   Clear
11:53 PM 75.0 °F - 66.9 °F 76% 30.19 in 10.0 mi Calm Calm - N/A   Scattered Clouds